Flag for Netherlands Weather past 2 weeks in Amersfoort, Netherlands

Now
57 °F

Partly sunny.


Feels Like: 54 °F
Forecast: 54 / 60 °F
Wind: 13 mph from Southwest

Location: Deelen

Current Time: Sep 4, 2015 at 5:32:12 PM

Latest Report: Sep 4, 2015 at 4:55 PM


Visibility: N/A

Pressure: 29.89 "Hg

Humidity: 88%

Dew point: 54 °F

Location of AmersfoortLocation

Historic Weather in Amersfoort — Graph

°F

Amersfoort temperature yesterday

Maximum temperature yesterday: 61 °F (at 11:25 AM)
Minimum temperature yesterday: 43 °F (at 6:55 AM)
Average temperature yesterday: 53 °F

Past Weeks' High & Low Weather Summary

 TemperatureHumidityPressure
High82 °F (Aug 31, 2:55 PM)100% (Aug 24, 1:55 AM)30.24 "Hg (Aug 24, 1:55 AM)
Low43 °F (Sep 3, 6:55 AM)37% (Aug 23, 3:25 PM)29.47 "Hg (Aug 24, 3:55 PM)
Average63 °F79%29.93 "Hg
* Reported Aug 20 4:25 PM — Sep 4 4:25 PM, Amersfoort, Weather by CustomWeather, © 2015

Note: Actual official high and low records may vary slightly from our data, if they occured in-between our weather recording intervals... More about our weather records

Advertising

Amersfoort weather history for previous 24 hours

 ConditionsComfort  
Time TempWeatherWind HumidityBarometerVisibility
4:25 PM
Fri, Sep 4
59 °FBroken clouds.18 mph77%29.89 "HgN/A
3:55 PM59 °FBroken clouds.17 mph77%29.89 "HgN/A
3:25 PM59 °FMore clouds than sun.15 mph72%29.89 "HgN/A
2:55 PM61 °FMostly cloudy.18 mph68%29.89 "HgN/A
2:25 PM63 °FScattered clouds.14 mph73%29.89 "HgN/A
1:55 PM61 °FBroken clouds.12 mph83%29.89 "HgN/A
1:25 PM59 °FScattered clouds.10 mph88%29.89 "HgN/A
12:55 PM57 °FBroken clouds.10 mph94%29.89 "HgN/A
12:25 PM57 °FPartly sunny.13 mph88%29.89 "HgN/A
11:55 AM57 °FPartly sunny.12 mph88%29.92 "HgN/A
11:25 AM57 °FMostly cloudy.14 mph88%29.89 "HgN/A
10:55 AM57 °FMostly cloudy.16 mph88%29.89 "HgN/A
10:25 AM55 °FBroken clouds.13 mph88%29.89 "HgN/A
9:55 AM54 °FMostly cloudy.14 mph94%29.89 "HgN/A
9:25 AM54 °FMostly cloudy.12 mph94%29.89 "HgN/A
8:55 AM54 °FOvercast.12 mph88%29.89 "HgN/A
8:25 AM52 °FMostly cloudy.10 mph94%29.89 "HgN/A
7:55 AM52 °FPartly sunny.10 mph94%29.89 "HgN/A
7:25 AM52 °FPassing clouds.9 mph94%29.89 "HgN/A
6:55 AM52 °FMostly cloudy.10 mph88%29.89 "HgN/A
6:25 AM52 °FOvercast.9 mph94%29.89 "HgN/A
5:55 AM52 °FOvercast.9 mph94%29.89 "HgN/A
5:25 AM52 °FPartly cloudy.9 mph88%29.89 "HgN/A
4:55 AM52 °FMostly cloudy.9 mph94%29.89 "HgN/A
4:25 AM52 °FMostly cloudy.9 mph94%29.92 "HgN/A
3:55 AM52 °FOvercast.9 mph94%29.92 "HgN/A
3:25 AM50 °FPassing clouds.8 mph94%29.92 "HgN/A
2:55 AM50 °FClear.8 mph94%29.92 "HgN/A
2:25 AM50 °FClear.7 mph94%29.92 "HgN/A
1:55 AM50 °FClear.6 mph94%29.92 "HgN/A
1:25 AM52 °FOvercast.6 mph94%29.92 "HgN/A
12:55 AM52 °FPassing clouds.6 mph94%29.92 "HgN/A
12:25 AM52 °FPassing clouds.6 mph94%29.92 "HgN/A
11:55 PM
Thu, Sep 3
52 °FPassing clouds.6 mph94%29.92 "HgN/A
11:25 PM52 °FPassing clouds.6 mph94%29.92 "HgN/A
10:55 PM52 °FPartly cloudy.6 mph94%29.92 "HgN/A
10:25 PM52 °FPartly cloudy.6 mph94%29.92 "HgN/A
9:55 PM52 °FPassing clouds.6 mph94%29.95 "HgN/A
9:25 PM52 °FOvercast.6 mph88%29.92 "HgN/A
8:55 PM52 °FBroken clouds.6 mph94%29.92 "HgN/A
8:25 PM54 °FBroken clouds.7 mph88%29.92 "HgN/A
7:55 PM57 °FOvercast.9 mph77%29.92 "HgN/A
7:25 PM57 °FOvercast.7 mph88%29.92 "HgN/A
6:55 PM57 °FOvercast.7 mph88%29.92 "HgN/A
6:25 PM57 °FMostly cloudy.7 mph88%29.92 "HgN/A
5:55 PM57 °FMore clouds than sun.8 mph82%29.92 "HgN/A
5:25 PM59 °FPartly sunny.8 mph82%29.92 "HgN/A
Weather by CustomWeather, © 2015

See weather overviewHow to use our weather pages